When you browse on this site, cookies collect data to enhance your experience and personalize the content and advertising you see.
Visit our Privacy Policy to learn more. By continuing to use the site, you agree to this use of cookies and data.

Hourly Weather Martigny

Today, 11 July, Saturday

Time Temperature Precipitation Wind Pressure Humidity
00:00 +20°C° 0 mm 1 mps 705 mmHg 91%
01:00 +20°C° 1 mm 1 mps 704 mmHg 92%
02:00 +20°C° 1 mm 1 mps 704 mmHg 94%
03:00 +19°C° 1 mm 1 mps 704 mmHg 95%
04:00 +19°C° 1.6 mm 1 mps 704 mmHg 96%
05:00 +19°C° 1.6 mm 1 mps 704 mmHg 96%
06:00 +18°C° 0 mm 2 mps 705 mmHg 98%
07:00 +18°C° 0.6 mm 2 mps 705 mmHg 96%
08:00 +19°C° 0.6 mm 2 mps 705 mmHg 93%
09:00 +19°C° 0.6 mm 2 mps 705 mmHg 91%
10:00 +19°C° 0.3 mm 2 mps 705 mmHg 88%
11:00 +20°C° 0.3 mm 2 mps 705 mmHg 86%
12:00 +21°C° 0.3 mm 2 mps 705 mmHg 83%
13:00 +21°C° 0.3 mm 2 mps 705 mmHg 81%
14:00 +21°C° 0.3 mm 2 mps 705 mmHg 79%
15:00 +23°C° 0.3 mm 2 mps 705 mmHg 77%
16:00 +21°C° 0.1 mm 2 mps 705 mmHg 79%
17:00 +20°C° 0.1 mm 2 mps 706 mmHg 81%
18:00 +20°C° 0.1 mm 2 mps 706 mmHg 83%
19:00 +18°C° 0 mm 2 mps 706 mmHg 87%
20:00 +18°C° 0 mm 1 mps 706 mmHg 91%
21:00 +15°C° 0 mm 1 mps 706 mmHg 94%
22:00 +15°C° 0 mm 1 mps 706 mmHg 92%
23:00 +15°C° 0 mm 1 mps 706 mmHg 90%

Tomorrow, 12 July, Sunday

Time Temperature Precipitation Wind Pressure Humidity
00:00 +14°C° 0 mm 1 mps 706 mmHg 88%
01:00 +14°C° 0 mm 1 mps 706 mmHg 87%
02:00 +13°C° 0 mm 1 mps 706 mmHg 86%
03:00 +13°C° 0 mm 1 mps 705 mmHg 85%
04:00 +15°C° 0 mm 1 mps 706 mmHg 82%
05:00 +16°C° 0 mm 1 mps 706 mmHg 78%
06:00 +19°C° 0 mm 1 mps 707 mmHg 75%
07:00 +21°C° 0 mm 1 mps 707 mmHg 66%
08:00 +23°C° 0 mm 1 mps 707 mmHg 57%
09:00 +25°C° 0 mm 1 mps 708 mmHg 48%
10:00 +26°C° 0 mm 1 mps 708 mmHg 47%
11:00 +27°C° 0 mm 2 mps 708 mmHg 45%
12:00 +27°C° 0 mm 2 mps 708 mmHg 43%
13:00 +27°C° 0 mm 2 mps 708 mmHg 46%
14:00 +27°C° 0 mm 3 mps 707 mmHg 48%
15:00 +27°C° 0 mm 3 mps 707 mmHg 51%
16:00 +26°C° 0 mm 2 mps 707 mmHg 59%
17:00 +24°C° 0 mm 2 mps 707 mmHg 67%
18:00 +23°C° 0 mm 1 mps 707 mmHg 74%
19:00 +22°C° 0 mm 1 mps 707 mmHg 81%
20:00 +20°C° 0 mm 1 mps 707 mmHg 87%
21:00 +18°C° 0 mm 1 mps 707 mmHg 93%
22:00 +18°C° 0 mm 1 mps 707 mmHg 93%
23:00 +18°C° 0 mm 1 mps 707 mmHg 93%

Day after tomorrow, 13 July, Monday

Time Temperature Precipitation Wind Pressure Humidity
00:00 +18°C° 0 mm 1 mps 707 mmHg 92%
01:00 +18°C° 0 mm 1 mps 706 mmHg 92%
02:00 +16°C° 0 mm 1 mps 706 mmHg 92%
03:00 +16°C° 0 mm 1 mps 706 mmHg 92%
04:00 +18°C° 0 mm 1 mps 706 mmHg 89%
05:00 +19°C° 0 mm 1 mps 706 mmHg 85%
06:00 +20°C° 0 mm 1 mps 706 mmHg 82%
07:00 +22°C° 0 mm 1 mps 706 mmHg 76%
08:00 +23°C° 0 mm 1 mps 707 mmHg 71%
09:00 +25°C° 0 mm 1 mps 707 mmHg 65%
10:00 +25°C° 0.3 mm 1 mps 706 mmHg 63%
11:00 +26°C° 0.3 mm 2 mps 706 mmHg 61%
12:00 +26°C° 0.3 mm 2 mps 706 mmHg 60%
13:00 +26°C° 0.5 mm 2 mps 706 mmHg 61%
14:00 +25°C° 0.5 mm 2 mps 705 mmHg 62%
15:00 +25°C° 0.5 mm 2 mps 705 mmHg 63%
16:00 +24°C° 0.4 mm 2 mps 705 mmHg 68%
17:00 +23°C° 0.4 mm 2 mps 705 mmHg 73%
18:00 +22°C° 0.4 mm 1 mps 704 mmHg 79%
19:00 +21°C° 0 mm 1 mps 704 mmHg 83%
20:00 +19°C° 0 mm 1 mps 704 mmHg 87%
21:00 +16°C° 0 mm 0 mps 704 mmHg 91%
22:00 +15°C° 0 mm 0 mps 704 mmHg 91%
23:00 +16°C° 0 mm 1 mps 704 mmHg 92%

14 July, Tuesday

Time Temperature Precipitation Wind Pressure Humidity
00:00 +15°C° 0 mm 1 mps 704 mmHg 92%
01:00 +15°C° 0 mm 1 mps 703 mmHg 92%
02:00 +15°C° 0 mm 1 mps 703 mmHg 93%
03:00 +15°C° 0 mm 1 mps 703 mmHg 93%
04:00 +15°C° 0 mm 0 mps 703 mmHg 91%
05:00 +16°C° 0 mm 0 mps 703 mmHg 89%
06:00 +17°C° 0 mm 0 mps 703 mmHg 87%
07:00 +18°C° 0.1 mm 0 mps 703 mmHg 80%
08:00 +22°C° 0.1 mm 1 mps 704 mmHg 72%
09:00 +23°C° 0.1 mm 1 mps 704 mmHg 65%
10:00 +24°C° 0.2 mm 2 mps 703 mmHg 64%
11:00 +24°C° 0.2 mm 2 mps 703 mmHg 64%
12:00 +24°C° 0.2 mm 2 mps 703 mmHg 64%
13:00 +24°C° 0.6 mm 2 mps 703 mmHg 66%
14:00 +23°C° 0.6 mm 2 mps 702 mmHg 68%
15:00 +23°C° 0.6 mm 2 mps 702 mmHg 71%
16:00 +21°C° 0.4 mm 2 mps 702 mmHg 76%
17:00 +20°C° 0.4 mm 2 mps 702 mmHg 81%
18:00 +20°C° 0.4 mm 1 mps 702 mmHg 86%
19:00 +19°C° 0.1 mm 1 mps 702 mmHg 89%
20:00 +18°C° 0.1 mm 1 mps 702 mmHg 92%
21:00 +14°C° 0.1 mm 0 mps 702 mmHg 94%
22:00 +14°C° 0 mm 0 mps 703 mmHg 95%
23:00 +14°C° 0 mm 0 mps 703 mmHg 95%

15 July, Wednesday

Time Temperature Precipitation Wind Pressure Humidity
00:00 +14°C° 0 mm 0 mps 703 mmHg 95%
01:00 +14°C° 0 mm 0 mps 703 mmHg 95%
02:00 +13°C° 0 mm 0 mps 702 mmHg 95%
03:00 +13°C° 0 mm 0 mps 702 mmHg 94%
04:00 +14°C° 0 mm 0 mps 703 mmHg 93%
05:00 +15°C° 0 mm 0 mps 703 mmHg 91%
06:00 +18°C° 0 mm 1 mps 703 mmHg 90%
07:00 +19°C° 0 mm 1 mps 703 mmHg 82%
08:00 +21°C° 0 mm 1 mps 703 mmHg 74%
09:00 +22°C° 0 mm 1 mps 704 mmHg 67%
10:00 +22°C° 0.1 mm 1 mps 704 mmHg 67%
11:00 +23°C° 0.1 mm 2 mps 704 mmHg 67%
12:00 +23°C° 0.1 mm 2 mps 704 mmHg 67%
13:00 +23°C° 0.3 mm 2 mps 704 mmHg 71%
14:00 +21°C° 0.3 mm 2 mps 703 mmHg 76%
15:00 +21°C° 0.3 mm 2 mps 703 mmHg 80%
16:00 +20°C° 0.2 mm 2 mps 703 mmHg 84%
17:00 +20°C° 0.2 mm 2 mps 704 mmHg 87%
18:00 +19°C° 0.2 mm 2 mps 704 mmHg 91%
19:00 +19°C° 0 mm 1 mps 704 mmHg 92%
20:00 +18°C° 0 mm 1 mps 704 mmHg 94%
21:00 +16°C° 0 mm 1 mps 705 mmHg 96%
22:00 +16°C° 0 mm 1 mps 705 mmHg 96%
23:00 +16°C° 0 mm 1 mps 705 mmHg 95%

16 July, Thursday

Time Temperature Precipitation Wind Pressure Humidity
00:00 +14°C° 0 mm 0 mps 705 mmHg 95%
01:00 +14°C° 0 mm 0 mps 705 mmHg 95%
02:00 +14°C° 0 mm 0 mps 704 mmHg 95%
03:00 +14°C° 0 mm 0 mps 704 mmHg 95%
04:00 +15°C° 0 mm 0 mps 704 mmHg 94%
05:00 +15°C° 0 mm 0 mps 705 mmHg 92%
06:00 +16°C° 0 mm 0 mps 705 mmHg 90%
07:00 +19°C° 0 mm 1 mps 705 mmHg 87%
08:00 +20°C° 0 mm 1 mps 705 mmHg 83%
09:00 +21°C° 0 mm 1 mps 705 mmHg 80%
10:00 +22°C° 0.1 mm 1 mps 705 mmHg 77%
11:00 +21°C° 0.1 mm 2 mps 705 mmHg 75%
12:00 +23°C° 0.1 mm 2 mps 705 mmHg 72%
13:00 +23°C° 0.1 mm 2 mps 704 mmHg 74%
14:00 +23°C° 0.1 mm 2 mps 704 mmHg 76%
15:00 +21°C° 0.1 mm 2 mps 704 mmHg 78%
16:00 +21°C° 0.1 mm 2 mps 704 mmHg 81%
17:00 +20°C° 0.1 mm 2 mps 704 mmHg 85%
18:00 +20°C° 0.1 mm 2 mps 704 mmHg 88%
19:00 +19°C° 0.1 mm 2 mps 704 mmHg 91%
20:00 +19°C° 0.1 mm 1 mps 704 mmHg 94%
21:00 +18°C° 0.1 mm 1 mps 705 mmHg 96%
22:00 +18°C° 0 mm 1 mps 705 mmHg 97%
23:00 +18°C° 0 mm 1 mps 704 mmHg 97%
Show more